Hailey, ID

9:49 AM MDT on May 25, 2018 (GMT -0600)
Friedman Memorial

Weather History for KSUN - December, 2011

Change the Weather History Date:

Sunday, December 4, 2011

  Actual Average Record
Temperature  
Mean Temperature 28 °F -  
Max Temperature 44 °F 35 °F 46 °F (2007)
Min Temperature 12 °F 17 °F 0 °F (1996)
Degree Days  
Heating Degree Days 37    
Moisture  
Dew Point 12 °F    
Average Humidity 75    
Maximum Humidity 100    
Minimum Humidity 18    
Precipitation  
Precipitation 0.00 in - - ()
Sea Level Pressure  
Sea Level Pressure 30.17 in    
Wind  
Wind Speed 6 mph (NNW)    
Max Wind Speed 10 mph    
Max Gust Speed -    
Visibility 9 miles    
Events Snow    
Averages and records for this station are not official NWS values.
T = Trace of Precipitation, MM = Missing Value Source: NWS Daily Summary

Daily Weather History Graph

Daily Weather History Graph

Search for Another Location

Airport or City:

Astronomy

Dec. 04, 2011 Rise Set
Actual Time 7:53 AM MST 5:01 PM MST
Civil Twilight 7:21 AM MST 5:33 PM MST
Nautical Twilight 6:45 AM MST 6:09 PM MST
Astronomical Twilight 6:10 AM MST 6:43 PM MST
Moon 1:40 PM MST (12/4) 2:14 AM MST (12/4)
Length of Visible Light 10h 12m
Length of Day
9h 07m
Waxing Gibbous, 72% of the Moon is Illuminated
Dec 4
Waxing Gibbous
Dec 10
Full
Dec 17
Last Quarter
Dec 24
New
Dec 31
First Quarter

Hourly Weather History & Observations

Time (MST) Temp. Windchill Dew Point Humidity Pressure Visibility Wind Dir Wind Speed Gust Speed Precip Events Conditions
12:15 AM 19.4 °F 10.4 °F 12.2 °F 74% 30.17 in 10.0 mi WNW 6.9 mph - N/A   Overcast
12:55 AM 19.4 °F 10.4 °F 12.2 °F 74% 30.15 in 10.0 mi NW 6.9 mph - N/A   Mostly Cloudy
1:35 AM 17.6 °F 8.2 °F 12.2 °F 79% 30.14 in 10.0 mi NNW 6.9 mph - N/A   Mostly Cloudy
1:55 AM 19.4 °F 12.8 °F 12.2 °F 74% 30.14 in 10.0 mi North 4.6 mph - N/A   Mostly Cloudy
2:15 AM 19.4 °F 12.8 °F 14.0 °F 80% 30.14 in 10.0 mi NNW 4.6 mph - N/A   Overcast
2:35 AM 19.4 °F 12.8 °F 12.2 °F 74% 30.13 in 10.0 mi North 4.6 mph - N/A   Mostly Cloudy
2:55 AM 19.4 °F 14.3 °F 12.2 °F 74% 30.13 in 10.0 mi NNW 3.5 mph - N/A   Mostly Cloudy
3:15 AM 19.4 °F 10.4 °F 12.2 °F 74% 30.13 in 10.0 mi NNW 6.9 mph - N/A   Overcast
3:35 AM 19.4 °F 11.5 °F 12.2 °F 74% 30.13 in 10.0 mi NW 5.8 mph - N/A   Mostly Cloudy
3:55 AM 19.4 °F 10.4 °F 12.2 °F 74% 30.13 in 10.0 mi NW 6.9 mph - N/A   Mostly Cloudy
4:15 AM 19.4 °F 10.4 °F 12.2 °F 74% 30.12 in 10.0 mi NNW 6.9 mph - N/A   Mostly Cloudy
4:35 AM 19.4 °F 10.4 °F 12.2 °F 74% 30.12 in 10.0 mi NNW 6.9 mph - N/A   Overcast
4:55 AM 19.4 °F 10.4 °F 14.0 °F 80% 30.11 in 10.0 mi NNW 6.9 mph - N/A   Overcast
5:15 AM 19.4 °F 8.6 °F 12.2 °F 74% 30.11 in 10.0 mi NNW 9.2 mph - N/A   Overcast
5:35 AM 19.4 °F - 14.0 °F 80% 30.11 in 10.0 mi Calm Calm - N/A   Overcast
5:55 AM 19.4 °F 14.3 °F 14.0 °F 80% 30.10 in 10.0 mi North 3.5 mph - N/A   Overcast
6:47 AM 19.4 °F 10.4 °F 12.2 °F 74% 30.09 in 7.0 mi WNW 6.9 mph - N/A   Mostly Cloudy
7:47 AM 17.6 °F - 12.2 °F 79% 30.10 in 7.0 mi Calm Calm - N/A   Mostly Cloudy
8:47 AM 19.4 °F 12.8 °F 14.0 °F 80% 30.09 in 7.0 mi WNW 4.6 mph - N/A   Scattered Clouds
9:47 AM 19.4 °F - 14.0 °F 80% 30.11 in 7.0 mi Calm Calm - N/A   Scattered Clouds
10:50 AM 26.6 °F 17.5 °F 19.4 °F 74% 30.12 in 7.0 mi ESE 9.2 mph - N/A   Scattered Clouds
11:47 AM 24.8 °F 14.6 °F 21.2 °F 86% 30.13 in 7.0 mi ESE 10.4 mph - N/A   Mostly Cloudy
12:08 PM 26.6 °F 18.2 °F 21.2 °F 80% 30.13 in 4.0 mi ESE 8.1 mph - N/A Snow Light Snow
2:47 PM 24.8 °F 20.5 °F 24.8 °F 100% 30.15 in 0.5 mi ESE 3.5 mph - N/A Snow Snow
3:13 PM 24.8 °F 20.5 °F 23.0 °F 93% 30.15 in 7.0 mi SE 3.5 mph - N/A   Scattered Clouds
3:47 PM 23.0 °F 17.0 °F 23.0 °F 100% 30.16 in 7.0 mi ESE 4.6 mph - N/A   Scattered Clouds
4:50 PM 21.2 °F - 21.2 °F 100% 30.19 in 7.0 mi Calm Calm - N/A   Scattered Clouds
5:50 PM 19.4 °F 12.8 °F 17.6 °F 93% 30.21 in 10.0 mi NW 4.6 mph - N/A   Clear
6:50 PM 19.4 °F 10.4 °F 10.4 °F 68% 30.24 in 4.0 mi North 6.9 mph - N/A   Haze
8:47 PM 44.6 °F 39.7 °F 3.2 °F 18% 30.26 in 10.0 mi NW 9.2 mph - N/A   Clear
9:47 PM 17.6 °F 10.7 °F 3.2 °F 53% 30.28 in 10.0 mi NNW 4.6 mph - N/A   Clear
10:15 PM 12.2 °F 0.7 °F 5.0 °F 73% 30.30 in 10.0 mi North 8.1 mph - N/A   Clear
10:35 PM 14.0 °F 5.1 °F 5.0 °F 67% 30.30 in 10.0 mi NW 5.8 mph - N/A   Clear
10:47 PM 14.0 °F 6.5 °F 3.2 °F 62% 30.31 in 10.0 mi WNW 4.6 mph - N/A   Clear
10:55 PM 14.0 °F 3.9 °F 5.0 °F 67% 30.31 in 10.0 mi NW 6.9 mph - N/A   Clear
11:15 PM 15.8 °F 6.1 °F 5.0 °F 62% 30.31 in 10.0 mi NW 6.9 mph - N/A   Clear
11:35 PM 12.2 °F 1.7 °F 3.2 °F 67% 30.32 in 10.0 mi WNW 6.9 mph - N/A   Clear
11:55 PM 12.2 °F 1.7 °F 3.2 °F 67% 30.32 in 10.0 mi NW 6.9 mph - N/A   Clear